Data supplied by UK-AIR on 19/3/2016
All Data GMT hour ending 
Status: R =Ratified P=Provisional,P*=As supplied
,,Peebles,,,,,,,,,,,,,,,,,,,,,,,
Date,time,"Nitric oxide",status,unit,"Nitrogen dioxide",status,unit,"Nitrogen oxides as nitrogen dioxide",status,unit,"Ozone",status,unit
 
01-01-2015,01:00,0.64860,R,ugm-3,1.13730,R,ugm-3,2.13180,R,ugm-3,74.04047,R,ugm-3
01-01-2015,02:00,0.51888,R,ugm-3,1.33620,R,ugm-3,2.13180,R,ugm-3,75.18800,R,ugm-3
01-01-2015,03:00,0.77925,R,ugm-3,1.25317,R,ugm-3,2.44800,R,ugm-3,76.53510,R,ugm-3
01-01-2015,04:00,0.48645,R,ugm-3,0.95290,R,ugm-3,1.69878,R,ugm-3,78.38112,R,ugm-3
01-01-2015,05:00,0.64891,R,ugm-3,0.80373,R,ugm-3,1.79871,R,ugm-3,77.13381,R,ugm-3
01-01-2015,06:00,0.77925,R,ugm-3,1.75281,R,ugm-3,2.94764,R,ugm-3,75.98628,R,ugm-3
01-01-2015,07:00,1.10386,R,ugm-3,2.50442,R,ugm-3,4.19698,R,ugm-3,75.23789,R,ugm-3
01-01-2015,08:00,0.90897,R,ugm-3,3.40282,R,ugm-3,4.79655,R,ugm-3,75.68692,R,ugm-3
01-01-2015,09:00,0.87654,R,ugm-3,2.90318,R,ugm-3,4.24718,R,ugm-3,76.73467,R,ugm-3
01-01-2015,10:00,0.90897,R,ugm-3,2.05403,R,ugm-3,3.44776,R,ugm-3,79.72822,R,ugm-3
01-01-2015,11:00,0.84411,R,ugm-3,1.50370,R,ugm-3,2.79799,R,ugm-3,81.47445,R,ugm-3
01-01-2015,12:00,1.00657,R,ugm-3,1.75424,R,ugm-3,3.29763,R,ugm-3,83.07101,R,ugm-3
01-01-2015,13:00,1.00657,R,ugm-3,2.00382,R,ugm-3,3.54721,R,ugm-3,79.82800,R,ugm-3
01-01-2015,14:00,0.84442,R,ugm-3,1.55295,R,ugm-3,2.84771,R,ugm-3,78.73037,R,ugm-3
01-01-2015,15:00,0.77894,R,ugm-3,1.55391,R,ugm-3,2.74826,R,ugm-3,76.23574,R,ugm-3
01-01-2015,16:00,0.90928,R,ugm-3,2.00287,R,ugm-3,3.39708,R,ugm-3,74.78886,R,ugm-3
01-01-2015,17:00,1.03869,R,ugm-3,2.25436,R,ugm-3,3.84699,R,ugm-3,74.04047,R,ugm-3
01-01-2015,18:00,0.81137,R,ugm-3,2.10327,R,ugm-3,3.34735,R,ugm-3,72.49380,R,ugm-3
01-01-2015,19:00,0.84411,R,ugm-3,1.85369,R,ugm-3,3.14798,R,ugm-3,69.69982,R,ugm-3
01-01-2015,20:00,0.61648,R,ugm-3,2.15204,R,ugm-3,3.09729,R,ugm-3,66.10756,R,ugm-3
01-01-2015,21:00,0.51919,R,ugm-3,1.35309,R,ugm-3,2.14917,R,ugm-3,71.34628,R,ugm-3
01-01-2015,22:00,0.68196,R,ugm-3,0.85298,R,ugm-3,1.89863,R,ugm-3,78.73037,R,ugm-3
01-01-2015,23:00,0.81168,R,ugm-3,0.85345,R,ugm-3,2.09801,R,ugm-3,80.22714,R,ugm-3
01-01-2015,24:00,0.55131,R,ugm-3,0.40402,R,ugm-3,1.24934,R,ugm-3,83.52005,R,ugm-3
02-01-2015,01:00,0.73508,R,ugm-3,0.53805,R,ugm-3,1.66515,R,ugm-3,84.21854,R,ugm-3
02-01-2015,02:00,0.64860,R,ugm-3,0.40545,R,ugm-3,1.39995,R,ugm-3,83.56994,R,ugm-3
02-01-2015,03:00,0.71346,R,ugm-3,0.85489,R,ugm-3,1.94884,R,ugm-3,81.42456,R,ugm-3
02-01-2015,04:00,0.68103,R,ugm-3,0.50442,R,ugm-3,1.54865,R,ugm-3,79.12951,R,ugm-3
02-01-2015,05:00,0.68103,R,ugm-3,0.35429,R,ugm-3,1.39852,R,ugm-3,77.33338,R,ugm-3
02-01-2015,06:00,0.61617,R,ugm-3,0.50490,R,ugm-3,1.44968,R,ugm-3,77.73252,R,ugm-3
02-01-2015,07:00,0.90803,R,ugm-3,1.00598,R,ugm-3,2.39828,R,ugm-3,77.23359,R,ugm-3
02-01-2015,08:00,0.94046,R,ugm-3,1.00598,R,ugm-3,2.44800,R,ugm-3,77.23359,R,ugm-3
02-01-2015,09:00,0.68103,R,ugm-3,1.05474,R,ugm-3,2.09897,R,ugm-3,76.18585,R,ugm-3
02-01-2015,10:00,0.94046,R,ugm-3,0.90605,R,ugm-3,2.34807,R,ugm-3,73.59144,R,ugm-3
02-01-2015,11:00,0.71346,R,ugm-3,1.40378,R,ugm-3,2.49773,R,ugm-3,72.94284,R,ugm-3
02-01-2015,12:00,0.94046,R,ugm-3,1.25603,R,ugm-3,2.69806,R,ugm-3,75.43746,R,ugm-3
02-01-2015,13:00,0.74589,R,ugm-3,1.30528,R,ugm-3,2.44896,R,ugm-3,79.32908,R,ugm-3
02-01-2015,14:00,0.94046,R,ugm-3,1.15563,R,ugm-3,2.59765,R,ugm-3,82.12306,R,ugm-3
02-01-2015,15:00,0.94046,R,ugm-3,1.45637,R,ugm-3,2.89839,R,ugm-3,79.32908,R,ugm-3
02-01-2015,16:00,1.00532,R,ugm-3,2.60626,R,ugm-3,4.14773,R,ugm-3,75.93639,R,ugm-3
02-01-2015,17:00,0.71346,R,ugm-3,2.05403,R,ugm-3,3.14798,R,ugm-3,75.28778,R,ugm-3
02-01-2015,18:00,0.74589,R,ugm-3,1.60411,R,ugm-3,2.74778,R,ugm-3,77.73252,R,ugm-3
02-01-2015,19:00,0.74589,R,ugm-3,2.00382,R,ugm-3,3.14750,R,ugm-3,73.04262,R,ugm-3
02-01-2015,20:00,0.64860,R,ugm-3,2.70332,R,ugm-3,3.69782,R,ugm-3,69.55015,R,ugm-3
02-01-2015,21:00,0.84318,R,ugm-3,1.75472,R,ugm-3,3.04757,R,ugm-3,71.59574,R,ugm-3
02-01-2015,22:00,0.64860,R,ugm-3,1.40378,R,ugm-3,2.39828,R,ugm-3,72.94284,R,ugm-3
02-01-2015,23:00,0.58374,R,ugm-3,1.00358,R,ugm-3,1.89863,R,ugm-3,74.43961,R,ugm-3
02-01-2015,24:00,0.84318,R,ugm-3,0.95529,R,ugm-3,2.24814,R,ugm-3,75.08821,R,ugm-3
03-01-2015,01:00,0.73508,R,ugm-3,1.20424,R,ugm-3,2.33134,R,ugm-3,73.30871,R,ugm-3
03-01-2015,02:00,0.73508,R,ugm-3,0.87083,R,ugm-3,1.99793,R,ugm-3,69.94929,R,ugm-3
03-01-2015,03:00,0.71346,R,ugm-3,0.60483,R,ugm-3,1.69878,R,ugm-3,71.44606,R,ugm-3
03-01-2015,04:00,0.68103,R,ugm-3,0.85393,R,ugm-3,1.89816,R,ugm-3,70.19875,R,ugm-3
03-01-2015,05:00,0.61617,R,ugm-3,0.85345,R,ugm-3,1.79823,R,ugm-3,72.29423,R,ugm-3
03-01-2015,06:00,0.81075,R,ugm-3,1.80492,R,ugm-3,3.04805,R,ugm-3,72.84305,R,ugm-3
03-01-2015,07:00,0.68103,R,ugm-3,0.90461,R,ugm-3,1.94884,R,ugm-3,76.58499,R,ugm-3
03-01-2015,08:00,0.74589,R,ugm-3,1.50418,R,ugm-3,2.64786,R,ugm-3,74.19015,R,ugm-3
03-01-2015,09:00,0.74589,R,ugm-3,3.00310,R,ugm-3,4.14678,R,ugm-3,68.90154,R,ugm-3
03-01-2015,10:00,1.42691,R,ugm-3,11.95169,R,ugm-3,14.13959,R,ugm-3,45.95099,R,ugm-3
03-01-2015,11:00,2.30252,R,ugm-3,15.55580,R,ugm-3,19.08627,R,ugm-3,36.12217,R,ugm-3
03-01-2015,12:00,1.71878,R,ugm-3,8.45612,R,ugm-3,11.09154,R,ugm-3,49.14411,R,ugm-3
03-01-2015,13:00,1.26476,R,ugm-3,5.15610,R,ugm-3,7.09538,R,ugm-3,62.76477,R,ugm-3
03-01-2015,14:00,1.23233,R,ugm-3,5.10542,R,ugm-3,6.99497,R,ugm-3,65.50885,R,ugm-3
03-01-2015,15:00,1.26476,R,ugm-3,6.90508,R,ugm-3,8.84436,R,ugm-3,62.56520,R,ugm-3
03-01-2015,16:00,1.42691,R,ugm-3,13.70067,R,ugm-3,15.88857,R,ugm-3,56.72777,R,ugm-3
03-01-2015,17:00,7.32914,R,ugm-3,44.07308,R,ugm-3,55.31093,R,ugm-3,22.05249,R,ugm-3
03-01-2015,18:00,7.00484,R,ugm-3,46.46849,R,ugm-3,57.20909,R,ugm-3,14.41893,R,ugm-3
03-01-2015,19:00,11.25314,R,ugm-3,36.30690,R,ugm-3,53.56148,R,ugm-3,34.37593,R,ugm-3
03-01-2015,20:00,1.13504,R,ugm-3,16.74633,R,ugm-3,18.48670,R,ugm-3,44.55400,R,ugm-3
03-01-2015,21:00,1.58906,R,ugm-3,23.39513,R,ugm-3,25.83166,R,ugm-3,32.97894,R,ugm-3
03-01-2015,22:00,1.07018,R,ugm-3,11.39993,R,ugm-3,13.04086,R,ugm-3,40.96174,R,ugm-3
03-01-2015,23:00,1.13504,R,ugm-3,8.40257,R,ugm-3,10.14294,R,ugm-3,43.95529,R,ugm-3
03-01-2015,24:00,1.07018,R,ugm-3,7.45206,R,ugm-3,9.09298,R,ugm-3,39.11572,R,ugm-3
04-01-2015,01:00,0.77832,R,ugm-3,6.46808,R,ugm-3,7.66148,R,ugm-3,37.58568,R,ugm-3
04-01-2015,02:00,1.38367,R,ugm-3,16.73183,R,ugm-3,18.85343,R,ugm-3,21.90281,R,ugm-3
04-01-2015,03:00,1.13504,R,ugm-3,9.40233,R,ugm-3,11.14270,R,ugm-3,24.84647,R,ugm-3
04-01-2015,04:00,1.32962,R,ugm-3,12.20032,R,ugm-3,14.23904,R,ugm-3,21.45378,R,ugm-3
04-01-2015,05:00,1.10261,R,ugm-3,14.24765,R,ugm-3,15.93830,R,ugm-3,18.31055,R,ugm-3
04-01-2015,06:00,1.65392,R,ugm-3,17.49938,R,ugm-3,20.03535,R,ugm-3,20.35614,R,ugm-3
04-01-2015,07:00,1.26476,R,ugm-3,23.04276,R,ugm-3,24.98203,R,ugm-3,24.24776,R,ugm-3
04-01-2015,08:00,6.09680,R,ugm-3,39.01691,R,ugm-3,48.36521,R,ugm-3,11.82452,R,ugm-3
04-01-2015,09:00,3.14569,R,ugm-3,29.25169,R,ugm-3,34.07501,R,ugm-3,16.91356,R,ugm-3
04-01-2015,10:00,3.56728,R,ugm-3,21.31099,R,ugm-3,26.78074,R,ugm-3,23.89851,R,ugm-3
04-01-2015,11:00,7.29671,R,ugm-3,26.63491,R,ugm-3,37.82303,R,ugm-3,20.50582,R,ugm-3
04-01-2015,12:00,8.69119,R,ugm-3,31.74081,R,ugm-3,45.06711,R,ugm-3,28.33894,R,ugm-3
04-01-2015,13:00,1.26476,R,ugm-3,4.80611,R,ugm-3,6.74539,R,ugm-3,67.15531,R,ugm-3
04-01-2015,14:00,1.07018,R,ugm-3,3.00645,R,ugm-3,4.64738,R,ugm-3,69.74972,R,ugm-3
04-01-2015,15:00,0.74589,R,ugm-3,3.50322,R,ugm-3,4.64690,R,ugm-3,69.64993,R,ugm-3
04-01-2015,16:00,0.74589,R,ugm-3,3.95266,R,ugm-3,5.09633,R,ugm-3,68.80176,R,ugm-3
04-01-2015,17:00,0.64860,R,ugm-3,5.00071,R,ugm-3,5.99521,R,ugm-3,67.95359,R,ugm-3
04-01-2015,18:00,0.87561,R,ugm-3,6.95146,R,ugm-3,8.29403,R,ugm-3,59.42197,R,ugm-3
04-01-2015,19:00,1.13504,R,ugm-3,11.15035,R,ugm-3,12.89073,R,ugm-3,51.83831,R,ugm-3
04-01-2015,20:00,0.84318,R,ugm-3,4.65311,R,ugm-3,5.94596,R,ugm-3,68.05337,R,ugm-3
04-01-2015,21:00,0.97289,R,ugm-3,6.30217,R,ugm-3,7.79392,R,ugm-3,65.80821,R,ugm-3
04-01-2015,22:00,1.45934,R,ugm-3,5.25651,R,ugm-3,7.49413,R,ugm-3,66.90584,R,ugm-3
04-01-2015,23:00,1.16747,R,ugm-3,4.75495,R,ugm-3,6.54505,R,ugm-3,62.51530,R,ugm-3
04-01-2015,24:00,0.84318,R,ugm-3,3.90341,R,ugm-3,5.19626,R,ugm-3,60.81896,R,ugm-3
05-01-2015,01:00,0.86355,R,ugm-3,2.80628,R,ugm-3,4.13036,R,ugm-3,62.39889,R,ugm-3
05-01-2015,02:00,1.29595,R,ugm-3,3.80906,R,ugm-3,5.79615,R,ugm-3,62.31573,R,ugm-3
05-01-2015,03:00,1.10137,R,ugm-3,3.20774,R,ugm-3,4.89648,R,ugm-3,64.41122,R,ugm-3
05-01-2015,04:00,1.03651,R,ugm-3,4.05641,R,ugm-3,5.64570,R,ugm-3,61.86670,R,ugm-3
05-01-2015,05:00,1.10137,R,ugm-3,4.00717,R,ugm-3,5.69590,R,ugm-3,59.72132,R,ugm-3
05-01-2015,06:00,0.84224,R,ugm-3,3.30528,R,ugm-3,4.59669,R,ugm-3,60.17036,R,ugm-3
05-01-2015,07:00,1.32838,R,ugm-3,4.80850,R,ugm-3,6.84532,R,ugm-3,60.51960,R,ugm-3
05-01-2015,08:00,1.29595,R,ugm-3,5.25746,R,ugm-3,7.24455,R,ugm-3,63.26369,R,ugm-3
05-01-2015,09:00,2.52703,R,ugm-3,11.56345,R,ugm-3,15.43818,R,ugm-3,58.02498,R,ugm-3
05-01-2015,10:00,1.36080,R,ugm-3,8.60625,R,ugm-3,10.69279,R,ugm-3,60.76907,R,ugm-3
05-01-2015,11:00,2.30033,R,ugm-3,10.51253,R,ugm-3,14.03966,R,ugm-3,61.36778,R,ugm-3
05-01-2015,12:00,1.10137,R,ugm-3,3.60745,R,ugm-3,5.29619,R,ugm-3,67.70412,R,ugm-3
05-01-2015,13:00,1.00408,R,ugm-3,2.65790,R,ugm-3,4.19746,R,ugm-3,69.74972,R,ugm-3
05-01-2015,14:00,1.84663,R,ugm-3,5.61175,R,ugm-3,8.44321,R,ugm-3,67.20520,R,ugm-3
05-01-2015,15:00,1.81420,R,ugm-3,6.96150,R,ugm-3,9.74323,R,ugm-3,65.20950,R,ugm-3
05-01-2015,16:00,1.68479,R,ugm-3,9.05903,R,ugm-3,11.64234,R,ugm-3,62.36563,R,ugm-3
05-01-2015,17:00,1.45778,R,ugm-3,9.15657,R,ugm-3,11.39181,R,ugm-3,62.56520,R,ugm-3
05-01-2015,18:00,1.16623,R,ugm-3,8.35380,R,ugm-3,10.14199,R,ugm-3,63.11401,R,ugm-3
05-01-2015,19:00,1.00408,R,ugm-3,6.75399,R,ugm-3,8.29356,R,ugm-3,65.80821,R,ugm-3
05-01-2015,20:00,1.10137,R,ugm-3,5.65574,R,ugm-3,7.34448,R,ugm-3,67.30498,R,ugm-3
05-01-2015,21:00,0.84193,R,ugm-3,4.45565,R,ugm-3,5.74658,R,ugm-3,68.55230,R,ugm-3
05-01-2015,22:00,0.80981,R,ugm-3,3.60506,R,ugm-3,4.84675,R,ugm-3,69.55015,R,ugm-3
05-01-2015,23:00,0.58343,R,ugm-3,2.80277,R,ugm-3,3.69734,R,ugm-3,70.04907,R,ugm-3
05-01-2015,24:00,0.58343,R,ugm-3,2.35285,R,ugm-3,3.24743,R,ugm-3,70.84735,R,ugm-3
06-01-2015,01:00,0.73466,R,ugm-3,2.20384,R,ugm-3,3.33030,R,ugm-3,71.57911,R,ugm-3
06-01-2015,02:00,0.86355,R,ugm-3,1.93991,R,ugm-3,3.26400,R,ugm-3,71.99488,R,ugm-3
06-01-2015,03:00,0.64828,R,ugm-3,2.10375,R,ugm-3,3.09777,R,ugm-3,72.29423,R,ugm-3
06-01-2015,04:00,0.71283,R,ugm-3,1.55534,R,ugm-3,2.64833,R,ugm-3,71.84520,R,ugm-3
06-01-2015,05:00,0.71283,R,ugm-3,1.45541,R,ugm-3,2.54841,R,ugm-3,70.74757,R,ugm-3
06-01-2015,06:00,1.10137,R,ugm-3,2.55845,R,ugm-3,4.24718,R,ugm-3,71.79531,R,ugm-3
06-01-2015,07:00,1.29595,R,ugm-3,3.70834,R,ugm-3,5.69543,R,ugm-3,73.74112,R,ugm-3
06-01-2015,08:00,1.19866,R,ugm-3,3.75806,R,ugm-3,5.59598,R,ugm-3,75.53725,R,ugm-3
06-01-2015,09:00,1.10137,R,ugm-3,3.80683,R,ugm-3,5.49557,R,ugm-3,79.62843,R,ugm-3
06-01-2015,10:00,1.03651,R,ugm-3,4.70618,R,ugm-3,6.29547,R,ugm-3,72.39402,R,ugm-3
06-01-2015,11:00,1.19866,R,ugm-3,6.10661,R,ugm-3,7.94453,R,ugm-3,69.00133,R,ugm-3
06-01-2015,12:00,2.23547,R,ugm-3,4.26727,R,ugm-3,7.69494,R,ugm-3,71.79531,R,ugm-3
06-01-2015,13:00,1.00408,R,ugm-3,3.20678,R,ugm-3,4.74635,R,ugm-3,71.34628,R,ugm-3
06-01-2015,14:00,1.03651,R,ugm-3,3.20726,R,ugm-3,4.79655,R,ugm-3,71.39617,R,ugm-3
06-01-2015,15:00,1.36080,R,ugm-3,4.25914,R,ugm-3,6.34568,R,ugm-3,70.49810,R,ugm-3
06-01-2015,16:00,,,,,,,,,,46.44992,R,ugm-3
06-01-2015,17:00,0.84224,R,ugm-3,5.90341,R,ugm-3,7.19483,R,ugm-3,52.53680,R,ugm-3
06-01-2015,18:00,0.93922,R,ugm-3,8.35284,R,ugm-3,9.79296,R,ugm-3,51.73852,R,ugm-3
06-01-2015,19:00,0.74526,R,ugm-3,3.40377,R,ugm-3,4.54649,R,ugm-3,59.87100,R,ugm-3
06-01-2015,20:00,0.61617,R,ugm-3,3.35261,R,ugm-3,4.29739,R,ugm-3,59.87100,R,ugm-3
06-01-2015,21:00,0.87436,R,ugm-3,6.30360,R,ugm-3,7.64426,R,ugm-3,56.62799,R,ugm-3
06-01-2015,22:00,1.26352,R,ugm-3,11.60266,R,ugm-3,13.54002,R,ugm-3,48.69508,R,ugm-3
06-01-2015,23:00,1.55507,R,ugm-3,9.05712,R,ugm-3,11.44153,R,ugm-3,50.89035,R,ugm-3
06-01-2015,24:00,0.61617,R,ugm-3,3.00310,R,ugm-3,3.94788,R,ugm-3,61.51745,R,ugm-3
07-01-2015,01:00,0.64860,R,ugm-3,1.00406,R,ugm-3,1.99856,R,ugm-3,69.45036,R,ugm-3
07-01-2015,02:00,0.82156,R,ugm-3,1.87106,R,ugm-3,3.13076,R,ugm-3,67.70412,R,ugm-3
07-01-2015,03:00,0.68103,R,ugm-3,1.60363,R,ugm-3,2.64786,R,ugm-3,65.80821,R,ugm-3
07-01-2015,04:00,0.68103,R,ugm-3,0.80373,R,ugm-3,1.84795,R,ugm-3,66.65638,R,ugm-3
07-01-2015,05:00,0.81075,R,ugm-3,1.10543,R,ugm-3,2.34855,R,ugm-3,66.95574,R,ugm-3
07-01-2015,06:00,0.94046,R,ugm-3,1.55534,R,ugm-3,2.99737,R,ugm-3,69.50025,R,ugm-3
07-01-2015,07:00,1.00532,R,ugm-3,2.25579,R,ugm-3,3.79727,R,ugm-3,71.39617,R,ugm-3
07-01-2015,08:00,1.39448,R,ugm-3,3.50800,R,ugm-3,5.64618,R,ugm-3,70.29853,R,ugm-3
07-01-2015,09:00,1.68635,R,ugm-3,3.55964,R,ugm-3,6.14534,R,ugm-3,70.44821,R,ugm-3
07-01-2015,10:00,1.03775,R,ugm-3,3.05522,R,ugm-3,4.64642,R,ugm-3,70.54800,R,ugm-3
07-01-2015,11:00,1.32962,R,ugm-3,3.15706,R,ugm-3,5.19578,R,ugm-3,70.49810,R,ugm-3
07-01-2015,12:00,1.23233,R,ugm-3,2.25723,R,ugm-3,4.14678,R,ugm-3,73.29208,R,ugm-3
07-01-2015,13:00,1.26476,R,ugm-3,2.15778,R,ugm-3,4.09705,R,ugm-3,74.04047,R,ugm-3
07-01-2015,14:00,1.26476,R,ugm-3,2.35763,R,ugm-3,4.29691,R,ugm-3,74.09036,R,ugm-3
07-01-2015,15:00,1.07018,R,ugm-3,2.15682,R,ugm-3,3.79775,R,ugm-3,74.04047,R,ugm-3
07-01-2015,16:00,1.26476,R,ugm-3,3.00741,R,ugm-3,4.94668,R,ugm-3,72.24434,R,ugm-3
07-01-2015,17:00,1.13504,R,ugm-3,2.95673,R,ugm-3,4.69710,R,ugm-3,72.54370,R,ugm-3
07-01-2015,18:00,1.42691,R,ugm-3,2.95816,R,ugm-3,5.14606,R,ugm-3,72.29423,R,ugm-3
07-01-2015,19:00,0.81075,R,ugm-3,2.55367,R,ugm-3,3.79679,R,ugm-3,71.69552,R,ugm-3
07-01-2015,20:00,0.61617,R,ugm-3,1.55391,R,ugm-3,2.49868,R,ugm-3,83.12091,R,ugm-3
07-01-2015,21:00,0.61617,R,ugm-3,1.35405,R,ugm-3,2.29883,R,ugm-3,80.57639,R,ugm-3
07-01-2015,22:00,0.71346,R,ugm-3,1.15467,R,ugm-3,2.24862,R,ugm-3,80.07746,R,ugm-3
07-01-2015,23:00,0.61617,R,ugm-3,0.90366,R,ugm-3,1.84843,R,ugm-3,82.12306,R,ugm-3
07-01-2015,24:00,0.61617,R,ugm-3,0.65408,R,ugm-3,1.59885,R,ugm-3,79.37897,R,ugm-3
08-01-2015,01:00,0.69225,R,ugm-3,0.73631,R,ugm-3,1.79775,R,ugm-3,77.83230,R,ugm-3
08-01-2015,02:00,0.64901,R,ugm-3,0.60371,R,ugm-3,1.59885,R,ugm-3,74.58929,R,ugm-3
08-01-2015,03:00,0.48645,R,ugm-3,0.60387,R,ugm-3,1.34975,R,ugm-3,71.69552,R,ugm-3
08-01-2015,04:00,0.64891,R,ugm-3,0.65360,R,ugm-3,1.64858,R,ugm-3,69.79961,R,ugm-3
08-01-2015,05:00,0.68165,R,ugm-3,0.75400,R,ugm-3,1.79918,R,ugm-3,71.69552,R,ugm-3
08-01-2015,06:00,0.74682,R,ugm-3,0.95338,R,ugm-3,2.09849,R,ugm-3,71.94499,R,ugm-3
08-01-2015,07:00,0.90928,R,ugm-3,1.30385,R,ugm-3,2.69806,R,ugm-3,73.59144,R,ugm-3
08-01-2015,08:00,1.20115,R,ugm-3,6.70236,R,ugm-3,8.54409,R,ugm-3,65.10971,R,ugm-3
08-01-2015,09:00,1.26601,R,ugm-3,4.10470,R,ugm-3,6.04589,R,ugm-3,68.90154,R,ugm-3
08-01-2015,10:00,0.87685,R,ugm-3,1.90389,R,ugm-3,3.24838,R,ugm-3,72.59359,R,ugm-3
08-01-2015,11:00,1.07143,R,ugm-3,2.55414,R,ugm-3,4.19698,R,ugm-3,73.04262,R,ugm-3
08-01-2015,12:00,1.03900,R,ugm-3,2.45422,R,ugm-3,4.04733,R,ugm-3,71.54585,R,ugm-3
08-01-2015,13:00,1.10386,R,ugm-3,2.45469,R,ugm-3,4.14726,R,ugm-3,70.94714,R,ugm-3
08-01-2015,14:00,0.94171,R,ugm-3,2.70284,R,ugm-3,4.14678,R,ugm-3,71.44606,R,ugm-3
08-01-2015,15:00,1.07143,R,ugm-3,2.55367,R,ugm-3,4.19650,R,ugm-3,71.54585,R,ugm-3
08-01-2015,16:00,1.07143,R,ugm-3,5.90150,R,ugm-3,7.54433,R,ugm-3,65.25939,R,ugm-3
08-01-2015,17:00,1.13629,R,ugm-3,5.00358,R,ugm-3,6.74587,R,ugm-3,67.40477,R,ugm-3
08-01-2015,18:00,1.07143,R,ugm-3,5.95170,R,ugm-3,7.59454,R,ugm-3,61.96649,R,ugm-3
08-01-2015,19:00,1.26632,R,ugm-3,6.70283,R,ugm-3,8.64450,R,ugm-3,60.22025,R,ugm-3
08-01-2015,20:00,1.07143,R,ugm-3,4.85249,R,ugm-3,6.49533,R,ugm-3,63.36348,R,ugm-3
08-01-2015,21:00,0.90928,R,ugm-3,2.90270,R,ugm-3,4.29691,R,ugm-3,69.60004,R,ugm-3
08-01-2015,22:00,1.07143,R,ugm-3,2.85345,R,ugm-3,4.49629,R,ugm-3,70.64778,R,ugm-3
08-01-2015,23:00,0.77894,R,ugm-3,1.60363,R,ugm-3,2.79799,R,ugm-3,74.93854,R,ugm-3
08-01-2015,24:00,0.61617,R,ugm-3,0.95338,R,ugm-3,1.89816,R,ugm-3,78.28133,R,ugm-3
09-01-2015,01:00,0.64984,R,ugm-3,0.73568,R,ugm-3,1.73209,R,ugm-3,81.29151,R,ugm-3
09-01-2015,02:00,0.60660,R,ugm-3,0.33596,R,ugm-3,1.26608,R,ugm-3,85.61553,R,ugm-3
09-01-2015,03:00,0.61741,R,ugm-3,0.25293,R,ugm-3,1.19962,R,ugm-3,85.46585,R,ugm-3
09-01-2015,04:00,0.58498,R,ugm-3,0.35190,R,ugm-3,1.24886,R,ugm-3,85.36607,R,ugm-3
09-01-2015,05:00,0.86604,R,ugm-3,0.53678,R,ugm-3,1.86469,R,ugm-3,83.71962,R,ugm-3
09-01-2015,06:00,0.61741,R,ugm-3,0.50251,R,ugm-3,1.44920,R,ugm-3,85.86499,R,ugm-3
09-01-2015,07:00,0.81199,R,ugm-3,1.00311,R,ugm-3,2.24814,R,ugm-3,84.96693,R,ugm-3
09-01-2015,08:00,1.10511,R,ugm-3,1.05331,R,ugm-3,2.74778,R,ugm-3,85.51575,R,ugm-3
09-01-2015,09:00,1.03963,R,ugm-3,1.35357,R,ugm-3,2.94764,R,ugm-3,84.76736,R,ugm-3
09-01-2015,10:00,1.00720,R,ugm-3,1.65336,R,ugm-3,3.19770,R,ugm-3,82.02327,R,ugm-3
09-01-2015,11:00,0.94202,R,ugm-3,2.00287,R,ugm-3,3.44728,R,ugm-3,79.67832,R,ugm-3
09-01-2015,12:00,0.71470,R,ugm-3,2.65168,R,ugm-3,3.74754,R,ugm-3,76.08606,R,ugm-3
09-01-2015,13:00,2.17716,R,ugm-3,2.55701,R,ugm-3,5.89528,R,ugm-3,75.33768,R,ugm-3
09-01-2015,14:00,1.13723,R,ugm-3,3.40234,R,ugm-3,5.14606,R,ugm-3,72.34413,R,ugm-3
09-01-2015,15:00,1.52701,R,ugm-3,6.60243,R,ugm-3,8.94381,R,ugm-3,68.50240,R,ugm-3
09-01-2015,16:00,0.94234,R,ugm-3,9.89671,R,ugm-3,11.34160,R,ugm-3,66.05767,R,ugm-3
09-01-2015,17:00,0.71470,R,ugm-3,2.50107,R,ugm-3,3.59693,R,ugm-3,67.90369,R,ugm-3
09-01-2015,18:00,0.71470,R,ugm-3,2.30169,R,ugm-3,3.39756,R,ugm-3,59.42197,R,ugm-3
09-01-2015,19:00,0.81230,R,ugm-3,1.70213,R,ugm-3,2.94764,R,ugm-3,59.12261,R,ugm-3
09-01-2015,20:00,0.58498,R,ugm-3,1.10160,R,ugm-3,1.99856,R,ugm-3,61.56735,R,ugm-3
09-01-2015,21:00,0.58498,R,ugm-3,1.05140,R,ugm-3,1.94836,R,ugm-3,62.41552,R,ugm-3
09-01-2015,22:00,0.74745,R,ugm-3,0.95243,R,ugm-3,2.09849,R,ugm-3,62.86455,R,ugm-3
09-01-2015,23:00,0.48738,R,ugm-3,0.65121,R,ugm-3,1.39852,R,ugm-3,64.26154,R,ugm-3
09-01-2015,24:00,0.48769,R,ugm-3,0.50108,R,ugm-3,1.24886,R,ugm-3,64.21165,R,ugm-3
10-01-2015,01:00,0.56378,R,ugm-3,0.80134,R,ugm-3,1.66579,R,ugm-3,59.60491,R,ugm-3
10-01-2015,02:00,0.73715,R,ugm-3,0.60116,R,ugm-3,1.73145,R,ugm-3,59.57165,R,ugm-3
10-01-2015,03:00,0.61835,R,ugm-3,0.55080,R,ugm-3,1.49892,R,ugm-3,61.66713,R,ugm-3
10-01-2015,04:00,0.55318,R,ugm-3,0.30122,R,ugm-3,1.14941,R,ugm-3,64.46111,R,ugm-3
10-01-2015,05:00,0.65078,R,ugm-3,0.35142,R,ugm-3,1.34927,R,ugm-3,81.37467,R,ugm-3
10-01-2015,06:00,0.52044,R,ugm-3,0.40115,R,ugm-3,1.19914,R,ugm-3,85.66542,R,ugm-3
10-01-2015,07:00,0.35829,R,ugm-3,0.50012,R,ugm-3,1.04948,R,ugm-3,82.62198,R,ugm-3
10-01-2015,08:00,0.74838,R,ugm-3,0.55128,R,ugm-3,1.69878,R,ugm-3,81.37467,R,ugm-3
10-01-2015,09:00,0.61835,R,ugm-3,0.65073,R,ugm-3,1.59885,R,ugm-3,81.27488,R,ugm-3
10-01-2015,10:00,0.81324,R,ugm-3,0.95195,R,ugm-3,2.19890,R,ugm-3,80.52650,R,ugm-3
10-01-2015,11:00,0.71564,R,ugm-3,1.00072,R,ugm-3,2.09801,R,ugm-3,79.57854,R,ugm-3
10-01-2015,12:00,0.81324,R,ugm-3,0.95147,R,ugm-3,2.19842,R,ugm-3,75.73682,R,ugm-3
10-01-2015,13:00,0.87810,R,ugm-3,0.80277,R,ugm-3,2.14917,R,ugm-3,74.24004,R,ugm-3
10-01-2015,14:00,0.78081,R,ugm-3,1.25078,R,ugm-3,2.44800,R,ugm-3,77.93209,R,ugm-3
10-01-2015,15:00,0.97539,R,ugm-3,1.20248,R,ugm-3,2.69806,R,ugm-3,79.17940,R,ugm-3
10-01-2015,16:00,0.91053,R,ugm-3,1.00215,R,ugm-3,2.39828,R,ugm-3,78.97983,R,ugm-3
10-01-2015,17:00,0.71595,R,ugm-3,1.40043,R,ugm-3,2.49820,R,ugm-3,77.23359,R,ugm-3
10-01-2015,18:00,0.65047,R,ugm-3,1.65049,R,ugm-3,2.64786,R,ugm-3,79.17940,R,ugm-3
10-01-2015,19:00,0.74838,R,ugm-3,1.40043,R,ugm-3,2.54793,R,ugm-3,79.67832,R,ugm-3
10-01-2015,20:00,0.84567,R,ugm-3,1.60172,R,ugm-3,2.89839,R,ugm-3,79.27918,R,ugm-3
10-01-2015,21:00,0.71595,R,ugm-3,1.30050,R,ugm-3,2.39828,R,ugm-3,78.13166,R,ugm-3
10-01-2015,22:00,0.78050,R,ugm-3,0.95147,R,ugm-3,2.14822,R,ugm-3,78.73037,R,ugm-3
10-01-2015,23:00,0.81324,R,ugm-3,1.10112,R,ugm-3,2.34807,R,ugm-3,77.08391,R,ugm-3
10-01-2015,24:00,0.74838,R,ugm-3,0.55080,R,ugm-3,1.69830,R,ugm-3,78.28133,R,ugm-3
11-01-2015,01:00,0.43406,R,ugm-3,0.60053,R,ugm-3,1.26608,R,ugm-3,78.49753,R,ugm-3
11-01-2015,02:00,0.78123,R,ugm-3,0.59989,R,ugm-3,1.79775,R,ugm-3,79.92779,R,ugm-3
11-01-2015,03:00,0.45589,R,ugm-3,0.24958,R,ugm-3,0.94860,R,ugm-3,78.92994,R,ugm-3
11-01-2015,04:00,0.65078,R,ugm-3,0.30170,R,ugm-3,1.29954,R,ugm-3,77.48305,R,ugm-3
11-01-2015,05:00,0.74838,R,ugm-3,0.60148,R,ugm-3,1.74898,R,ugm-3,77.18370,R,ugm-3
11-01-2015,06:00,0.87872,R,ugm-3,0.60100,R,ugm-3,1.94836,R,ugm-3,80.07746,R,ugm-3
11-01-2015,07:00,0.78143,R,ugm-3,0.95051,R,ugm-3,2.14869,R,ugm-3,81.22499,R,ugm-3
11-01-2015,08:00,0.65109,R,ugm-3,0.95003,R,ugm-3,1.94836,R,ugm-3,78.78026,R,ugm-3
11-01-2015,09:00,0.81386,R,ugm-3,1.05092,R,ugm-3,2.29883,R,ugm-3,80.32693,R,ugm-3
11-01-2015,10:00,0.61866,R,ugm-3,1.84939,R,ugm-3,2.79799,R,ugm-3,79.92779,R,ugm-3
11-01-2015,11:00,0.68383,R,ugm-3,2.39875,R,ugm-3,3.44728,R,ugm-3,79.42886,R,ugm-3
11-01-2015,12:00,0.71626,R,ugm-3,1.49988,R,ugm-3,2.59813,R,ugm-3,79.47875,R,ugm-3
11-01-2015,13:00,0.65109,R,ugm-3,1.40043,R,ugm-3,2.39875,R,ugm-3,77.33338,R,ugm-3
11-01-2015,14:00,0.78112,R,ugm-3,1.10064,R,ugm-3,2.29835,R,ugm-3,75.93639,R,ugm-3
11-01-2015,15:00,0.68352,R,ugm-3,1.35023,R,ugm-3,2.39828,R,ugm-3,74.93854,R,ugm-3
11-01-2015,16:00,0.55380,R,ugm-3,1.19914,R,ugm-3,2.04829,R,ugm-3,77.53295,R,ugm-3
11-01-2015,17:00,1.26975,R,ugm-3,2.00000,R,ugm-3,3.94692,R,ugm-3,79.67832,R,ugm-3
11-01-2015,18:00,1.10698,R,ugm-3,1.45063,R,ugm-3,3.14798,R,ugm-3,79.92779,R,ugm-3
11-01-2015,19:00,0.74838,R,ugm-3,1.00167,R,ugm-3,2.14917,R,ugm-3,81.47445,R,ugm-3
11-01-2015,20:00,0.65109,R,ugm-3,0.95003,R,ugm-3,1.94836,R,ugm-3,82.32263,R,ugm-3
11-01-2015,21:00,0.65109,R,ugm-3,1.35070,R,ugm-3,2.34903,R,ugm-3,81.07531,R,ugm-3
11-01-2015,22:00,0.58623,R,ugm-3,0.65025,R,ugm-3,1.54913,R,ugm-3,81.42456,R,ugm-3
11-01-2015,23:00,0.74838,R,ugm-3,0.60053,R,ugm-3,1.74803,R,ugm-3,81.22499,R,ugm-3
11-01-2015,24:00,0.58623,R,ugm-3,0.79990,R,ugm-3,1.69878,R,ugm-3,77.28348,R,ugm-3
12-01-2015,01:00,0.69475,R,ugm-3,0.73376,R,ugm-3,1.79903,R,ugm-3,76.63488,R,ugm-3
12-01-2015,02:00,0.86937,R,ugm-3,0.79879,R,ugm-3,2.13180,R,ugm-3,76.53510,R,ugm-3
12-01-2015,03:00,0.88028,R,ugm-3,0.49821,R,ugm-3,1.84795,R,ugm-3,77.28348,R,ugm-3
12-01-2015,04:00,0.81449,R,ugm-3,0.74970,R,ugm-3,1.99856,R,ugm-3,77.08391,R,ugm-3
12-01-2015,05:00,0.81480,R,ugm-3,0.69902,R,ugm-3,1.94836,R,ugm-3,78.03187,R,ugm-3
12-01-2015,06:00,0.84754,R,ugm-3,0.84867,R,ugm-3,2.14822,R,ugm-3,79.37897,R,ugm-3
12-01-2015,07:00,0.87997,R,ugm-3,1.14893,R,ugm-3,2.49820,R,ugm-3,79.22929,R,ugm-3
12-01-2015,08:00,0.78175,R,ugm-3,1.64953,R,ugm-3,2.84819,R,ugm-3,81.87359,R,ugm-3
12-01-2015,09:00,1.04243,R,ugm-3,1.59933,R,ugm-3,3.19770,R,ugm-3,86.61338,R,ugm-3
12-01-2015,10:00,0.81449,R,ugm-3,1.44920,R,ugm-3,2.69806,R,ugm-3,84.36822,R,ugm-3
12-01-2015,11:00,1.49863,R,ugm-3,1.99952,R,ugm-3,4.29739,R,ugm-3,81.62413,R,ugm-3
12-01-2015,12:00,0.94545,R,ugm-3,1.74803,R,ugm-3,3.19770,R,ugm-3,81.92349,R,ugm-3
12-01-2015,13:00,1.20520,R,ugm-3,1.84891,R,ugm-3,3.69686,R,ugm-3,80.37682,R,ugm-3
12-01-2015,14:00,0.91240,R,ugm-3,2.09849,R,ugm-3,3.49748,R,ugm-3,80.27703,R,ugm-3
12-01-2015,15:00,1.07517,R,ugm-3,1.64905,R,ugm-3,3.29763,R,ugm-3,81.32478,R,ugm-3
12-01-2015,16:00,1.10823,R,ugm-3,2.74731,R,ugm-3,4.44656,R,ugm-3,77.68262,R,ugm-3
12-01-2015,17:00,1.10791,R,ugm-3,3.84747,R,ugm-3,5.54625,R,ugm-3,75.48735,R,ugm-3
12-01-2015,18:00,1.17340,R,ugm-3,4.34616,R,ugm-3,6.14534,R,ugm-3,71.34628,R,ugm-3
12-01-2015,19:00,1.07517,R,ugm-3,6.54649,R,ugm-3,8.19506,R,ugm-3,66.95574,R,ugm-3
12-01-2015,20:00,1.17309,R,ugm-3,5.29619,R,ugm-3,7.09490,R,ugm-3,70.99703,R,ugm-3
12-01-2015,21:00,0.94514,R,ugm-3,3.24695,R,ugm-3,4.69614,R,ugm-3,78.48090,R,ugm-3
12-01-2015,22:00,0.91302,R,ugm-3,2.34807,R,ugm-3,3.74802,R,ugm-3,79.47875,R,ugm-3
12-01-2015,23:00,0.84754,R,ugm-3,2.54793,R,ugm-3,3.84747,R,ugm-3,78.78026,R,ugm-3
12-01-2015,24:00,0.65140,R,ugm-3,1.64905,R,ugm-3,2.64786,R,ugm-3,79.37897,R,ugm-3
13-01-2015,01:00,0.69516,R,ugm-3,1.39931,R,ugm-3,2.46521,R,ugm-3,77.63273,R,ugm-3